DateTimeUTC,F1_A11,F1_S11,BsB_S11,BsG_S11,BsR_S11,BbsB_S11,BbsG_S11,BbsR_S11,BaB_A11,BaG_A11,BaR_A11,Tu_S11,T_S11,Uu_S11,U_S11,P_S11,T1_A11
2021-10-20T06:00:00Z,00000200,21000000,,,,,,,-000.74,-000.79,-000.64,17.3,24.3,01.1,00.7,0668.7,31.0
2021-10-20T06:01:00Z,00000200,21000000,,,,,,,0000.15,0000.20,-000.08,17.3,24.3,00.9,00.6,0668.7,31.0
2021-10-20T06:02:00Z,00000200,21000000,,,,,,,-000.48,-000.42,0000.04,17.3,24.3,00.9,00.6,0668.7,31.0
2021-10-20T06:03:00Z,00000200,61000000,,,,,,,0000.44,0000.35,0000.21,17.3,24.3,00.9,00.6,0668.7,31.0
2021-10-20T06:04:00Z,00000200,41000000,0001.63,0001.53,0000.68,0000.68,0000.12,0000.33,0000.47,0000.62,-000.12,17.6,24.2,00.9,00.6,0669.6,31.0
2021-10-20T06:05:00Z,00000200,01000000,0001.54,0001.70,0000.28,-000.21,0000.30,0000.25,0000.63,0000.06,0000.51,17.8,24.2,00.8,00.5,0669.7,31.0
2021-10-20T06:06:00Z,00000200,01000000,0001.74,0000.80,0001.00,-000.40,-000.07,0000.17,0000.63,0000.66,0000.60,17.8,24.2,00.8,00.5,0669.7,31.0
2021-10-20T06:07:00Z,00000200,01000000,0001.49,0001.38,0000.88,0000.88,0000.31,0000.31,0000.06,0000.28,0000.15,17.9,24.2,00.9,00.6,0669.7,31.0
2021-10-20T06:08:00Z,00000200,01000000,0002.03,0001.10,0000.69,0000.81,0000.26,0000.03,0000.59,0000.50,0000.31,17.9,24.2,00.9,00.6,0669.7,31.0
2021-10-20T06:09:00Z,00000200,01000000,0002.40,0001.37,0000.88,-000.30,0000.39,0000.31,0000.94,0001.03,0000.29,17.8,24.2,00.9,00.6,0669.7,31.0
2021-10-20T06:10:00Z,00000200,01000000,0002.34,0000.91,0000.70,0000.80,0000.23,0000.44,0000.28,0000.21,0000.54,17.8,24.2,01.0,00.7,0669.6,31.0
2021-10-20T06:11:00Z,00000200,01000000,0001.87,0001.17,0000.58,0000.02,0000.27,0000.13,0000.39,0000.49,0000.36,17.8,24.1,00.9,00.6,0669.7,31.0
2021-10-20T06:12:00Z,00000200,01000000,0002.13,0001.24,0000.95,0000.09,0000.39,0000.43,0000.56,0000.25,0000.15,17.8,24.1,01.0,00.7,0669.7,31.0
2021-10-20T06:13:00Z,00000200,01000000,0002.46,0001.23,0000.62,0000.23,-000.08,0000.21,0000.38,0000.05,0000.08,17.7,24.1,01.0,00.7,0669.7,31.0
2021-10-20T06:14:00Z,00000200,01000000,0002.23,0001.43,0000.60,0000.23,0000.44,0000.11,0000.36,0000.55,0000.49,17.7,24.1,01.0,00.7,0669.7,31.0
2021-10-20T06:15:00Z,00000200,01000000,0001.48,0001.37,0000.72,0000.55,-000.07,0000.22,0000.97,0000.62,0000.35,17.7,24.0,01.0,00.7,0669.6,31.0
2021-10-20T06:16:00Z,00000200,01000000,0002.35,0001.31,0000.90,0000.79,0000.25,0000.41,-000.19,0000.50,-000.08,17.7,24.1,01.1,00.7,0669.6,31.0
2021-10-20T06:17:00Z,00000200,01000000,0001.32,0001.26,0000.20,-000.14,-000.06,0000.10,0000.51,0000.16,0000.43,17.7,24.1,01.1,00.7,0669.6,31.0
2021-10-20T06:18:00Z,00000200,01000000,0001.31,0001.14,0000.70,-000.03,0000.21,0000.18,0000.42,0000.13,0000.21,17.8,24.1,01.0,00.7,0669.6,31.0
2021-10-20T06:19:00Z,00000200,01000000,0002.08,0001.41,0000.64,0000.50,0000.46,0000.10,0000.42,0000.50,0000.70,17.8,24.2,01.0,00.6,0669.6,31.0
2021-10-20T06:20:00Z,00000200,01000000,0001.97,0001.15,0000.63,0000.59,0000.19,0000.41,0000.17,0000.22,-000.29,17.8,24.2,00.9,00.6,0669.6,31.0
2021-10-20T06:21:00Z,00000200,01000000,0002.62,0001.40,0000.71,0000.45,0000.21,-000.17,0000.41,0000.42,0000.63,17.8,24.2,00.9,00.6,0669.6,31.0
2021-10-20T06:22:00Z,00000200,01000000,0001.83,0000.95,0000.71,0000.12,0000.20,0000.36,0000.35,0000.19,-000.27,17.8,24.2,00.9,00.6,0669.6,31.0
2021-10-20T06:23:00Z,00000200,01000000,0001.44,0001.39,0000.51,-000.24,-000.06,0000.18,0000.51,0000.24,0000.27,17.8,24.1,00.9,00.6,0669.6,31.0
2021-10-20T06:24:00Z,00000200,01000000,0001.99,0001.09,0000.85,0000.36,0000.11,0000.42,0000.52,0000.90,0000.60,17.7,24.1,00.9,00.6,0669.6,31.0
2021-10-20T06:25:00Z,00000200,01000000,0002.00,0001.38,0000.58,0000.56,-000.15,-000.00,0000.56,-000.23,0000.49,17.7,24.1,01.0,00.7,0669.6,31.0
2021-10-20T06:26:00Z,00000200,01000000,0001.94,0001.23,0000.74,0000.23,0000.41,0000.30,0000.30,0000.81,0000.19,17.7,24.1,00.9,00.6,0669.6,31.0
2021-10-20T06:27:00Z,00000200,01000000,0001.68,0001.40,0000.69,0000.00,-000.11,0000.13,0000.66,0000.55,0000.29,17.6,24.1,00.9,00.6,0669.6,31.0
2021-10-20T06:28:00Z,00000200,01000000,0002.79,0001.33,0000.44,0000.47,0000.08,0000.13,0000.57,0000.41,0000.27,17.6,24.0,00.9,00.6,0669.6,31.0
2021-10-20T06:29:00Z,00000200,01000000,0002.25,0001.25,0000.58,0001.47,0000.37,0000.18,0000.38,0000.15,0000.24,17.6,24.0,01.0,00.7,0669.6,31.0
2021-10-20T06:30:00Z,00000200,01000000,0001.97,0000.96,0000.54,0000.43,0000.39,0000.03,0000.37,0000.63,0000.60,17.5,24.0,01.1,00.8,0669.6,31.0
2021-10-20T06:31:00Z,00000200,01000000,0001.87,0001.45,0000.75,0000.32,0000.40,0000.19,0000.82,0000.59,0000.39,17.5,24.0,01.3,00.8,0669.6,31.0
2021-10-20T06:32:00Z,00000200,01000000,0003.21,0001.07,0000.58,0000.45,0000.27,0000.04,0001.03,0001.04,0000.44,17.6,24.0,01.2,00.8,0669.6,31.0
2021-10-20T06:33:00Z,00000200,01000000,0002.52,0001.35,0000.90,0000.58,0000.11,0000.35,0000.48,0000.78,0000.67,17.6,24.0,01.3,00.9,0669.5,31.0
2021-10-20T06:34:00Z,00000200,01000000,0002.06,0001.66,0000.90,0000.34,0000.19,0000.12,0001.02,0000.69,0000.60,17.7,24.1,01.4,01.0,0669.5,31.0
2021-10-20T06:35:00Z,00000200,01000000,0001.54,0001.34,0000.58,0000.33,0000.24,0000.07,0000.24,0000.33,0000.30,17.8,24.1,01.4,00.9,0669.5,31.0
2021-10-20T06:36:00Z,00000200,01000000,0002.52,0001.31,0000.64,0000.05,0000.10,0000.43,0000.54,0000.10,0000.13,17.9,24.2,01.4,01.0,0669.6,31.0
2021-10-20T06:37:00Z,00000200,01000000,0002.25,0001.12,0000.17,0000.45,0000.14,0000.16,0000.36,0000.54,0000.38,17.9,24.2,01.4,00.9,0669.6,31.1
2021-10-20T06:38:00Z,00000200,01000000,0002.51,0001.29,0000.55,0000.72,0000.23,0000.10,0000.17,0000.19,0000.19,17.9,24.2,01.3,00.9,0669.6,31.0
2021-10-20T06:39:00Z,00000200,01000000,0001.76,0001.07,0000.75,0000.19,0000.03,0000.28,0000.28,0000.51,0000.21,17.9,24.2,01.3,00.9,0669.6,31.0
2021-10-20T06:40:00Z,00000200,01000000,0001.00,0001.36,0000.80,0001.16,0000.26,0000.13,0000.41,0000.24,0000.24,17.9,24.2,01.2,00.8,0669.6,31.0
2021-10-20T06:41:00Z,00000200,01000000,0002.25,0001.39,0000.69,0000.28,0000.11,0000.23,0000.51,0000.23,0000.45,17.9,24.2,01.2,00.8,0669.6,31.0
2021-10-20T06:42:00Z,00000200,01000000,0002.10,0001.58,0000.80,0000.87,0000.56,0000.31,0000.59,0000.08,-000.13,17.8,24.2,01.2,00.8,0669.6,31.0
2021-10-20T06:43:00Z,00000200,01000000,0001.64,0001.15,0000.56,0000.79,0000.40,0000.43,0000.53,0001.04,0000.33,17.8,24.1,01.3,00.9,0669.6,31.0
2021-10-20T06:44:00Z,00000200,01000000,0001.64,0000.97,0000.80,0000.36,0000.36,0000.27,0000.31,-000.10,0000.71,17.8,24.1,01.3,00.9,0669.6,31.0
2021-10-20T06:45:00Z,00000200,01000000,0001.75,0001.18,0000.86,0000.36,-000.02,0000.32,0000.64,0000.65,-000.01,17.8,24.1,01.2,00.8,0669.5,31.0
2021-10-20T06:46:00Z,00000200,01000000,0001.71,0001.37,0000.43,0000.77,-000.03,-000.14,0000.51,0000.51,0000.44,17.8,24.1,01.4,00.9,0669.5,31.0
2021-10-20T06:47:00Z,00000200,01000000,0002.37,0001.21,0000.56,0000.56,-000.01,0000.18,0000.38,0000.65,0000.64,17.8,24.1,01.4,01.0,0669.5,31.0
2021-10-20T06:48:00Z,00000200,01000000,0002.36,0001.38,0000.63,0000.47,0000.46,0000.41,0000.67,0000.36,-000.22,17.9,24.2,01.4,01.0,0669.5,31.0
2021-10-20T06:49:00Z,00000200,01000000,0002.40,0001.11,0000.80,0000.55,-000.02,0000.33,0000.80,0000.72,0000.97,17.9,24.2,01.5,01.0,0669.5,31.0
2021-10-20T06:50:00Z,00000200,01000000,0001.98,0000.99,0000.98,-000.39,0000.43,0000.25,0000.40,0000.14,0000.02,17.9,24.2,01.5,01.0,0669.5,31.0
2021-10-20T06:51:00Z,00000200,01000000,0002.11,0001.44,0000.46,-000.08,0000.02,0000.27,0000.76,0000.83,0000.40,17.9,24.2,01.5,01.0,0669.4,31.1
2021-10-20T06:52:00Z,00000200,01000000,0002.30,0001.23,0000.55,0001.01,0000.13,-000.11,0000.25,0000.42,0000.17,17.9,24.2,01.5,01.0,0669.4,31.0
2021-10-20T06:53:00Z,00000200,01000000,0001.57,0001.15,0000.70,0000.26,0000.01,0000.16,0000.34,0000.13,0000.09,17.9,24.2,01.5,01.0,0669.4,31.0
2021-10-20T06:54:00Z,00000200,01000000,0002.13,0001.28,0000.52,0000.53,-000.30,0000.30,0000.28,0000.28,0000.50,17.8,24.2,01.4,00.9,0669.4,31.0
2021-10-20T06:55:00Z,00000200,01000000,0000.97,0001.25,0000.88,0000.34,0000.53,0000.32,0000.05,0000.14,-000.23,17.8,24.2,01.3,00.9,0669.4,31.0
2021-10-20T06:56:00Z,00000200,01000000,0001.64,0001.24,0000.46,-000.46,0000.20,0000.00,0000.49,0000.30,0000.43,17.8,24.1,01.4,00.9,0669.4,31.0
2021-10-20T06:57:00Z,00000200,40000000,,,,,,,0000.01,0000.11,0000.06,17.8,24.1,01.5,01.0,0669.4,31.0
2021-10-20T06:58:00Z,00000200,61000000,,,,,,,-000.35,-000.39,-000.15,17.5,24.2,01.2,00.8,0668.4,31.0
2021-10-20T06:59:00Z,00000200,21000000,,,,,,,0000.45,-000.23,0000.15,17.4,24.3,01.2,00.8,0668.4,31.0
